Location: Saint John
(45.2733°N, 66.0633°W)
Time: 08:14:25
(UTC-04:00)

BlueWalker 3 - Pass Details

Date: 06 December 2022
Orbit: 499 x 517 km, 53.2° (Epoch: 01 February)

Event Time Altitude Azimuth Distance (km) Brightness Sun altitude
Rises 18:49:06 0° 303° (WNW) 2,627 6.3 -21.6°
Reaches altitude 10° 18:51:21 10° 308° (NW) 1,735 5.2 -22.0°
Enters shadow 18:54:27 45° 345° (NNW) 703 2.6 -22.5°
